www.pogodaiklimat.ru

Погода и климат >> Архив погоды >> Украина >> Коломыя


ПОГОДА в Коломые

  • Прогноз погоды в Коломые
  • Монитор погоды в Коломые

АРХИВ ПОГОДЫ в Коломые

Время (UTC), дата Ветер
(напр.,м/с)
 
Видим.   Явления Облачность Т
(С)
Тd
(С)
f
(%)
Тe
(С)
Тes
(С)
Комфортность P
(гПа)
Po
(гПа)
Тmin
(С)
Tmax
(С)
R
(мм)
R24
(мм)
S
(см)
03 10.06 СЗ 1 500 м туман ?/? +15.8 +15.5 98 +16 +17 1022.0 986.7
06 10.06 С 1 10 км {туман} 10/10 600 м
[Sc]
+20.7 +19.0 90 +26 +26 душно 1021.0 986.4 +15.6
09 10.06 С 1 20 км 3/3 1000 м
[Cu hum]
+24.8 +18.0 66 +29 +43 душно 1020.0 985.9
12 10.06 ЮВ 2 20 км 5/5 1000 м
[Cu med, cong]
+26.6 +17.4 57 +31 +37 душно 1018.0 984.1
15 10.06 В 2 20 км 3/3 1000 м
[Cu med, cong]
+27.5 +16.8 52 +31 +35 душно 1017.0 983.3
18 10.06 СВ 1 20 км ясно +24.9 +19.3 71 +30 +30 душно 1017.0 983.0 +27.9
21 10.06 ЮЗ 1 10 км ясно +19.5 +17.6 89 +23 +23 комфорт 1018.0 983.3
00 11.06 ЮЗ 1 4000 м дымка ясно +17.1 +16.0 93 +18 +18 1018.0 983.0
03 11.06 З 2 2300 м дымка ясно +15.4 +14.3 93 +15 +15 1017.0 981.8
06 11.06 СЗ 1 20 км ясно +21.1 +17.7 81 +25 +33 комфорт 1018.0 983.5 +15.2
09 11.06 В 2 20 км 3/3 600 м
[Cu hum]
+26.4 +19.0 64 +32 +43 очень
душно
1017.0 983.2
12 11.06 В 2 20 км 4/3 600 м
[Cu hum Ci fib]
+29.0 +16.2 46 +32 +43 душно 1015.0 981.5
15 11.06 СВ 2 20 км 6/4 600 м
[Cu med, cong Ci fib]
+29.0 +16.2 46 +32 +35 душно 1014.0 980.5
18 11.06 СВ 1 20 км 9/6 600 м
[Sc Ac trans Ci fib]
+26.0 +18.1 62 +31 +31 очень
душно
1015.0 981.2 +29.7
21 11.06 СЗ 1 10 км 3 балла +19.9 +17.9 88 +24 +24 комфорт 1017.0 982.4
00 12.06 СЗ 1 10 км ясно +16.9 +15.4 91 +18 +18 1017.0 982.0
03 12.06 З 1 10 км 3 балла +15.5 +14.5 94 +16 +16 1017.0 981.8
06 12.06 СЗ 1 20 км ясно +20.8 +16.4 76 +25 +33 комфорт 1017.0 982.5 +15.3
09 12.06 ЮВ 1 10 км 3 балла +27.6 +17.1 53 +32 +45 очень
душно
1016.0 982.3
12 12.06 В 2 20 км 3/3 1000 м
[Cu med, cong Ci sp]
+29.0 +13.6 39 +31 +42 жарко 1014.0 980.5
15 12.06 В 1 20 км 9/3 600 м
[Cu med, cong Ci sp]
+28.9 +13.9 40 +31 +31 жарко 1013.0 979.5
18 12.06 СВ 1 20 км 9/4 600 м
[Sc Ac trans Ci fib]
+24.9 +19.3 71 +30 +30 душно 1014.0 980.1 +29.5
21 12.06 штиль 0 10 км 6/0
[Ac lent Ci fib]
+19.3 +17.8 91 +21 +21 комфорт 1016.0 981.4
00 13.06 штиль 0 10 км 3/0
[Ci fib]
+16.8 +15.7 93 +17 +17 1017.0 982.0
03 13.06 З 1 10 км ясно +15.0 +13.9 93 +15 +16 1017.0 981.8
06 13.06 штиль 0 20 км ясно +21.3 +16.0 72 +25 +34 комфорт 1017.0 982.5 +15.0
09 13.06 В 1 20 км 3/3 600 м
[Cu med, cong]
+27.2 +17.4 55 +31 +45 душно 1016.0 982.3
12 13.06 В 3 20 км 3/3 600 м
[Cu med, cong]
+29.6 +14.9 41 +32 +41 душно 1015.0 981.5
15 13.06 В 1 20 км 3/3 600 м
[Sc]
+30.5 +17.2 45 +34 +39 очень
душно
1016.0 982.6
18 13.06 СВ 1 20 км 3/3 600 м
[Sc]
+25.6 +16.4 57 +29 +29 душно 1016.0 982.1 +30.5
21 13.06 штиль 0 10 км 3/0
[Ci fib]
+20.3 +18.2 88 +24 +24 комфорт 1017.0 982.5
00 14.06 штиль 0 10 км 4/0
[Ci fib]
+17.0 +15.3 90 +17 +17 1018.0 983.0
03 14.06 СЗ 1 10 км 3/3 600 м
[Sc]
+14.0 +13.0 94 +14 +14 1018.0 982.6
06 14.06 СЗ 1 20 км ясно +20.1 +15.1 73 +24 +32 комфорт 1018.0 983.4 +14.0
09 14.06 В 2 20 км 1/1 1000 м
[Cu med, cong]
+27.5 +17.3 54 +32 +48 очень
душно
1018.0 984.2
12 14.06 В 3 20 км 1/0
[Ci sp]
+29.6 +14.5 40 +32 +45 душно 1017.0 983.5
15 14.06 В 2 20 км 8/1 600 м
[Cb cap Ac cuf Ci ing]
+28.5 +17.4 51 +33 +33 очень
душно
1016.0 982.4
18 14.06 штиль 0 20 км 8/1 600 м
[Cb cap Ac cuf Ci fib]
+24.7 +20.0 75 +30 +30 очень
душно
1018.0 984.0 +30.1
21 14.06 штиль 0 10 км 4/0
[Ci]
+19.8 +18.5 92 +22 +22 комфорт 1019.0 984.3
00 15.06 З 1 4000 м дымка 3/0
[Ci fib]
+16.9 +15.8 93 +18 +18 1019.0 984.0
03 15.06 СЗ 1 4000 м дымка 5/0
[Ci]
+15.4 +14.8 96 +16 +16 1019.0 983.8
06 15.06 СВ 1 20 км 3/0
[Ci fib]
+22.5 +17.4 73 +27 +33 душно 1017.0 982.7 +15.4
09 15.06 ЮВ 2 10 км ясно +28.0 +18.1 55 +33 +49 очень
душно
1016.0 982.4
12 15.06 В 2 20 км 1/1 1000 м
[Cu med, cong]
+29.5 +17.3 48 +34 +50 очень
душно
1015.0 981.6
15 15.06 СВ 2 10 км ясно +29.7 +16.5 45 +33 +39 душно 1013.0 979.6
18 15.06 В 1 20 км 1/0
[Ci fib]
+27.6 +18.6 58 +33 +33 очень
душно
1014.0 980.4 +30.0
21 15.06 штиль 0 10 км 3 балла +19.7 +17.8 89 +22 +22 комфорт 1014.0 979.5
00 16.06 СЗ 1 10 км ясно +16.5 +15.5 94 +17 +17 1014.0 979.1
03 16.06 СЗ 1 500 м туман ясно +14.8 +14.6 99 +15 +15 1014.0 978.9
06 16.06 СЗ 1 20 км {туман} ясно +21.5 +17.3 77 +26 +34 душно 1014.0 979.7 +14.8
09 16.06 ЮВ 1 10 км ясно +28.2 +17.7 53 +33 +52 опасность
солнечного
удара
1013.0 979.5
12 16.06 В 2 20 км 3/3 600 м
[Cu med, cong]
+30.6 +16.2 42 +34 +45 очень
душно
1012.0 978.8
15 16.06 СВ 2 10 км 3 балла +30.7 +15.9 41 +34 +38 очень
душно
1011.0 977.8
18 16.06 штиль 0 10 км 10 баллов +25.9 +19.8 69 +32 +32 очень
душно
1012.0 978.3 +30.9
21 16.06 СЗ 1 10 км 10 баллов +20.9 +18.5 86 +26 +26 душно 1014.0 979.6

 

Местоположение метеостанции Коломыя (Ивано-Франковская область, Украина): широта 48.53 долгота 25.03 высота над уровнем моря 298 м.

В архиве по умолчанию представлена погода в Коломые за последнюю неделю. Архивные данные за месяц целиком и за предыдущие месяцы, начиная с января 2011 года, Вы можете получить, выбрав интересующий диапазон дат из раскрывающегося списка и нажав кнопку "Ввод!".


*Определитесь, кто Вы:
робот инопланетянин человек

Внимание! Время в таблицах - всемирное. Для получения местного времени необходимо прибавить поправку, которая равна 2 ч.

Смотрите также архив погоды в соседних городах и на ближайших метеорологических станциях:

Погода в Ивано-Франковске (Ивано-Франковская область, Украина) (55 км)
Погода в Ясине (Закарпатская область, Украина) (57 км)
Погода на Пожежевской (Ивано-Франковская область, Украина) (58 км)
Погода в Черновцах (Черновицкая область, Украина) (67 км)
Погода в Селятине (Черновицкая область, Украина) (75 км)
Погода в Рахове (Закарпатская область, Украина) (76 км)
Погода в Чорткове (Тернопольская область, Украина) (78 км)
Погода в Долине (Ивано-Франковская область, Украина) (90 км)
Погода в Бережанах (Львовская область, Украина) (100 км)
Погода в Рэдэуци (Румыния) (101 км)

Пояснения к столбцам:

Ветер - указаны скорость ветра в м/с - средняя за 10 мин, порывы в срок и между сроками (в фигурных скобках) и направление, откуда дует ветер: С - северный, СВ - северо-восточный, В - восточный, ЮВ - юго-восточный, Ю - южный, ЮЗ - юго-западный, З - западный, СЗ - северо-западный.
Видимость - горизонтальная дальность видимости в метрах или километрах. При видимости от 1 до 10 км при отсутствии осадков обычно наблюдается дымка, при ухудшении видимости до 1 км и менее - туман. В сухую погоду видимость может ухудшаться дымом, пылью или мглою.
Явления - указаны атмосферные явления, наблюдавшиеся в срок или в последний час перед сроком; фигурными скобками обозначены явления, наблюдавшиеся между сроками (за 1-3 часа до срока); квадратными скобками обозначены град или гололедные отложения с указанием их диаметра в мм.
Облачность - указаны через наклонную черту общая и нижняя облачность в баллах и высота нижней границы облаков в метрах; квадратными скобками обозначены формы облаков: Ci - перистые, Cs - перисто-слоистые, Cc - перисто-кучевые, Ac - высококучевые, As - высокослоистые, Sc - слоисто-кучевые, Ns - слоисто-дождевые, Cu - кучевые, Cb - кучево-дождевые. Подробнее классификацию облаков см. в Атласе облаков (PDF).
T - Температура воздуха - температура, измеренная на высоте 2 м над землей.
Td - Температура точки росы - температура, при понижении до которой содержащийся в воздухе водяной пар достигнет насыщения.
f - Относительная влажность воздуха - влажноcть воздуха, измеренная на высоте 2 м над землей.
Te - Эффективная температура - температура, которую ощущает одетый по сезону человек в тени. Характеристика душности погоды. При расчете учитывается влияние влажности воздуха и скорости ветра на теплоощущения человека.
Tes - Эффективная температура на солнце - температура, которую ощущает человек, с поправкой на солнечный нагрев. Характеристика знойности погоды. Зависит от высоты солнца над горизонтом, облачности и скорости ветра. Ночью, в пасмурную погоду, а также при ветре 12 м/с и более поправка равна нулю.
P - Атмосферное давление - приведенное к уровню моря атмосферное давление.
Po - Атмосферное давление - измеренное на уровне метеостанции атмосферное давление.
Tmin - Минимальная температура - минимум температуры воздуха на высоте 2 м над землей.
Tmax - Максимальная температура - максимум температуры воздуха на высоте 2 м над землей.
R - Количество осадков - Количество выпавших осадков за период времени, мм. При наведении курсора мыши на число - период времени, за который выпало указанное количество осадков.
R24 - Количество осадков - Количество выпавших осадков за 24 часа, мм.
S - Снежный покров - Высота снежного покрова, см. При наведении курсора мыши на число - состояние снежного покрова и степень покрытия местности в баллах.